STARLINK-32336, 61004

Orbit data source: Space-Track

STARLINK-32336, 61004 is a payload satellite owned by SpaceX/Seattle (US) in LEO that was launched on Thu, 05 Sep 2024 UTC via an FALCON 9 launch vehicle from the Air Force Eastern Test Range (AFETR). Payload-class satellites include a variety of spacecraft equipped with specific instruments for various scientific and technological missions. These include communications satellites like Starlink; space stations such as the ISS; scientific satellites like the Hubble; Earth observation satellites from companies like Planet Labs, Umbra, and HawkEye 360; GPS; miniature CubeSats for education and research; and military/defense satellites.

Loading next visibility...
Identifier
61004, 2024-158Q
Orbit
LEO
Country
Flag of USUS
Related business
Manufacturer
SpaceX/Seattle
Mission
Operational Commercial Communications
Bus & Motor
STARLINK V2M, Unknown motor
Mass
730 kg wet, ~700 kg dry
Launch date (UTC)
2024-09-05 (1 year ago)
Launch vehicle
FALCON 9
Launch site
Air Force Eastern Test Range (AFETR)
Object type
Payload
Rocket body
Debris
Shape & HBR
Box + 2 Pan, 17.7 m
Radar Cross Section
33.884 m², Large (>1 m²)

Expand to show TLE details & history
Last TLE update: 6 hours ago

TLE from 6 hours ago
0 STARLINK-32336
1 61004U 24158Q   25292.88688132 -.00001249  00000-0 -30087-4 0  9995
2 61004  53.1605 359.5505 0000745  77.5852 282.5232 15.30183560 64090
Epoch: 2025-10-19T21:17Z
TLE epoch observation values (Epoch: 2025-10-19T21:17:06.546Z)
Latitude
-0.00001°
Longitude
11.67611°
Altitude
476.053 km
Speed
7.629 km/s
True Right ascension
23h 58m 12s
True Declination
0° 00' 00"
Sunlit
Object was in full shadow at epoch
Visualization orbit readout
Latitude
Unknown
Longitude
Unknown
Altitude
Unknown
Speed
Unknown
Apparent Right ascension
Unknown
Apparent Declination
Unknown
Sunlit
N/A
Visualization observer readout
Local Sidereal Time
22:34:39
Azimuth
Unknown
Elevation
Unknown
Doppler factor
Unknown
Orbital elements
Apogee altitude
476.031 km
Perigee altitude
475.01 km
Semi-major axis
6,853.658 km
Eccentricity
0.00007
Inclination
53.1605°
RAAN
359.5505°
Arg. of periapsis
77.5852°
True anomaly
282.51487°
Mean anomaly
282.5232°
Eccentric anomaly
282.51903°
Mean motion
3.82525 °/min
Orbital period
94.11 mins
BSTAR
-0.000030087
Loading maneuver chart data...
Computing Atmospheric mass density...
Loading historical data...
Loading historical data...
Loading historical data...
Loading historical data...
Loading historical data...
Loading historical data...
Loading historical data...

Documentation

Showing up to 5 results
|